Date,TemperatureHighF,TemperatureAvgF,TemperatureLowF,DewpointHighF,DewpointAvgF,DewpointLowF,HumidityHigh,HumidityAvg,HumidityLow,PressureMaxIn,PressureMinIn,WindSpeedMaxMPH,WindSpeedAvgMPH,GustSpeedMaxMPH,PrecipitationSumIn
2013-1-1,80.6,68.2,57.6,67.7,58.6,51.2,100,75,36,30.17,29.99,6,1,10,0.00
2013-1-2,79.5,69.0,63.1,71.1,66.9,62.9,100,93,71,30.02,29.94,5,1,11,0.00
2013-1-3,87.8,69.2,61.5,76.0,65.5,58.7,100,90,42,30.09,29.96,11,2,17,0.00
2013-1-4,65.7,61.7,59.0,63.9,61.2,58.4,100,98,91,30.22,30.06,12,6,17,0.01
2013-1-5,86.4,67.3,59.4,68.0,62.9,55.3,100,88,37,30.24,30.11,11,3,14,0.00
2013-1-6,88.5,71.0,64.0,73.1,67.4,63.8,100,90,48,30.14,30.01,6,1,10,0.00
2013-1-7,69.1,65.8,62.6,67.9,64.7,62.3,100,96,84,30.15,30.04,12,6,17,0.01
2013-1-8,93.0,73.5,63.5,72.7,67.3,60.4,100,84,35,30.16,30.05,7,2,10,0.00
2013-1-9,94.8,77.2,69.6,75.3,70.5,60.4,100,83,33,30.22,30.10,4,1,8,0.00
2013-1-10,90.0,75.3,69.4,75.3,68.5,55.0,100,83,33,30.22,30.13,4,1,10,0.00
2013-1-11,87.8,74.6,68.0,72.7,67.9,9.6,100,83,32,30.21,30.06,14,1,14,0.00
2013-1-12,90.5,74.8,68.0,72.1,69.5,65.3,100,86,44,30.13,30.01,4,1,8,0.00
2013-1-13,88.5,75.0,67.3,71.8,68.9,64.8,100,84,46,30.11,29.99,3,1,7,0.00
2013-1-14,88.2,73.6,66.7,71.3,64.7,49.6,100,78,30,30.12,30.06,5,1,9,0.00
2013-1-15,87.8,73.7,65.3,70.7,67.4,61.4,100,84,43,30.09,29.99,4,0,7,0.00
2013-1-16,85.6,73.7,67.5,72.1,68.6,63.3,100,86,50,30.05,29.95,5,1,11,0.00
2013-1-17,77.7,66.7,58.8,76.5,63.6,50.2,100,90,68,30.11,29.95,8,2,17,0.04
2013-1-18,66.4,57.3,45.3,61.9,49.8,37.9,100,78,38,30.27,30.10,21,7,25,0.00
2013-1-19,74.7,65.5,56.3,66.7,61.6,54.5,100,88,68,30.22,30.07,11,4,16,0.00
2013-1-20,85.3,68.6,62.6,68.0,64.8,58.8,100,89,44,30.12,29.98,7,2,10,0.00
2013-1-21,82.9,68.1,63.5,67.1,61.7,56.0,94,81,48,30.06,29.97,97,2,97,0.00
2013-1-22,68.0,63.1,58.5,57.9,39.6,17.1,83,46,15,30.24,30.02,12,5,17,0.00
2013-1-23,79.2,61.3,52.7,54.8,33.8,10.4,88,41,10,30.32,30.22,12,4,14,0.00
2013-1-24,80.1,63.5,53.4,60.5,47.3,25.8,100,63,14,30.30,30.20,9,2,11,0.00
2013-1-25,84.0,65.5,56.1,60.1,53.3,26.4,100,74,14,30.28,30.14,4,1,7,0.00
2013-1-26,81.0,66.8,54.9,63.9,56.5,40.3,100,76,25,30.25,30.13,4,1,9,0.00
2013-1-27,84.0,69.0,59.7,63.9,57.9,41.9,100,74,25,30.26,30.14,7,2,9,0.00
2013-1-28,87.3,70.6,62.8,68.4,64.2,55.8,100,83,37,30.27,30.14,3,1,7,0.00
2013-1-29,84.7,71.8,63.7,71.6,67.8,63.4,100,89,53,30.18,30.03,5,2,11,0.00
2013-1-30,80.6,72.4,68.0,71.8,69.7,67.7,100,92,71,30.04,29.86,10,3,20,0.00
2013-1-31,70.9,62.9,55.6,69.4,45.9,25.6,99,59,22,30.20,29.87,7,2,17,0.04